QPF
0.00 0.00 0.00 0.00 0.00 0.00 0.00 0.00 0.00 0.00 0.00 0.00 0.00 0.01 0.01 0.00 0.00 0.00 0.03 0.08 0.15 0.23 0.22 0.11 0.08 0.07 0.07 0.07 0.08 0.07 0.06 0.04 0.04 0.07 0.08 0.07 0.06 0.06 0.04 0.04 0.03 0.02 0.03 0.02 0.04 0.04 0.05 0.01 0.00 0.01 0.01 0.00 0.00 0.00
0.00 0.00 0.00 0.00 0.00 0.00 0.00 0.00 0.00 0.00 0.00 0.00 0.00 0.00 0.00 0.00 0.00 0.00 0.02 0.08 0.10 0.18 0.24 0.16 0.12 0.11 0.10 0.09 0.08 0.07 0.07 0.06 0.05 0.06 0.06 0.06 0.05 0.04 0.04 0.03 0.02 0.03 0.03 0.03 0.04 0.04 0.03 0.01 0.02 0.02 0.00 0.00 0.00 0.00
0.00 0.00 0.00 0.00 0.00 0.00 0.00 0.00 0.00 0.00 0.00 0.00 0.00 0.00 0.00 0.00 0.00 0.00 0.01 0.01 0.01 0.06 0.09 0.06 0.05 0.03 0.03 0.04 0.05 0.04 0.04 0.04 0.04 0.05 0.04 0.04 0.04 0.04 0.03 0.03 0.02 0.02 0.01 0.01 0.01 0.01 0.00 0.00 0.00 0.00 0.00 0.00 0.00 0.00
0.00 0.00 0.00 0.00 0.00 0.00 0.00 0.00 0.00 0.00 0.00 0.00 0.00 0.00 0.00 0.00 0.00 0.00 0.00 0.00 0.00 0.00 0.01 0.01 0.00 0.00 0.00 0.00 0.00 0.01 0.01 0.00 0.00 0.00 0.01 0.02 0.02 0.01 0.01 0.01 0.00 0.00 0.00 0.00 0.00 0.00 0.00 0.00 0.00 0.00 0.00 0.00 0.00 0.00
0.00 0.00 0.00 0.00 0.00 0.00 0.00 0.00 0.00 0.00 0.00 0.00 0.00 0.00 0.00 0.00 0.00 0.00 0.00 0.00 0.00 0.00 0.00 0.00 0.00 0.00 0.00 0.00 0.00 0.00 0.00 0.00 0.00 0.00 0.00 0.00 0.00 0.00 0.00 0.00 0.00 0.00 0.01 0.00 0.00 0.00 0.01 0.00 0.00 0.00 0.00 0.00 0.00 0.00
0.00 0.00 0.00 0.00 0.00 0.00 0.00 0.00 0.00 0.00 0.00 0.00 0.00 0.00 0.00 0.00 0.00 0.00 0.00 0.00 0.00 0.00 0.00 0.00 0.00 0.00 0.00 0.00 0.00 0.00 0.00 0.00 0.00 0.00 0.00 0.00 0.00 0.00 0.00 0.00 0.00 0.00 0.00 0.00 0.00 0.00 0.00 0.00 0.00 0.00 0.00 0.00 0.00 0.00
0.00 0.00 0.00 0.00 0.00 0.00 0.00 0.00 0.00 0.00 0.00 0.00 0.00 0.00 0.00 0.00 0.00 0.00 0.00 0.00 0.00 0.00 0.00 0.00 0.00 0.00 0.00 0.00 0.00 0.00 0.00 0.00 0.00 0.00 0.00 0.00 0.00 0.00 0.00 0.00 0.00 0.00 0.00 0.00 0.00 0.00 0.00 0.00 0.00 0.00 0.00 0.00 0.00 0.00
0.00 0.00 0.00 0.00 0.00 0.00 0.00 0.00 0.00 0.00 0.00 0.00 0.00 0.00 0.00 0.00 0.00 0.00 0.00 0.00 0.00 0.00 0.00 0.00 0.00 0.00 0.00 0.00 0.00 0.00 0.00 0.00 0.00 0.00 0.00 0.00 0.00 0.00 0.00 0.00 0.00 0.00 0.00 0.00 0.00 0.00 0.00 0.00 0.00 0.00 0.00 0.00 0.00 0.00
0.00 0.00 0.00 0.00 0.00 0.00 0.00 0.00 0.00 0.00 0.00 0.00 0.00 0.00 0.00 0.00 0.00 0.00 0.00 0.00 0.00 0.00 0.00 0.00 0.00 0.00 0.00 0.00 0.00 0.00 0.00 0.00 0.00 0.00 0.00 0.00 0.00 0.00 0.00 0.00 0.00 0.00 0.00 0.00 0.00 0.00 0.00 0.00 0.00 0.00 0.00 0.00 0.00 0.00
0.00 0.00 0.00 0.00 0.00 0.00 0.00 0.00 0.00 0.00 0.00 0.00 0.00 0.00 0.00 0.00 0.00 0.00 0.00 0.00 0.00 0.00 0.00 0.00 0.00 0.00 0.00 0.00 0.00 0.00 0.00 0.00 0.00 0.00 0.00 0.00 0.00 0.00 0.00 0.00 0.00 0.00 0.00 0.00 0.00 0.00 0.00 0.00 0.00 0.00 0.00 0.00 0.00 0.00
0.00 0.00 0.00 0.00 0.00 0.00 0.00 0.00 0.00 0.00 0.00 0.00 0.00 0.00 0.00 0.00 0.00 0.00 0.00 0.00 0.00 0.00 0.00 0.00 0.00 0.00 0.00 0.00 0.00 0.00 0.00 0.00 0.00 0.00 0.00 0.00 0.00 0.00 0.00 0.00 0.00 0.00 0.00 0.00 0.00 0.00 0.00 0.00 0.00 0.00 0.00 0.00 0.00 0.00
0.00 0.00 0.00 0.00 0.00 0.00 0.00 0.00 0.00 0.00 0.00 0.00 0.00 0.00 0.00 0.00 0.00 0.00 0.00 0.00 0.00 0.00 0.00 0.00 0.00 0.00 0.00 0.00 0.00 0.00 0.00 0.00 0.00 0.00 0.00 0.00 0.00 0.00 0.00 0.00 0.00 0.00 0.00 0.00 0.00 0.00 0.00 0.00 0.00 0.00 0.00 0.00 0.00 0.00
0.00 0.00 0.00 0.00 0.00 0.00 0.00 0.00 0.00 0.00 0.00 0.00 0.00 0.00 0.00 0.00 0.00 0.00 0.00 0.00 0.00 0.00 0.00 0.00 0.00 0.00 0.00 0.00 0.00 0.00 0.00 0.00 0.00 0.00 0.00 0.00 0.00 0.00 0.00 0.00 0.00 0.00 0.00 0.00 0.00 0.00 0.00 0.00 0.00 0.00 0.00 0.00 0.00 0.00
0.00 0.00 0.00 0.00 0.00 0.00 0.00 0.00 0.00 0.00 0.00 0.00 0.00 0.00 0.00 0.00 0.00 0.00 0.00 0.00 0.00 0.00 0.00 0.00 0.00 0.00 0.00 0.00 0.00 0.00 0.00 0.00 0.00 0.00 0.00 0.00 0.00 0.00 0.00 0.00 0.00 0.00 0.00 0.00 0.00 0.00 0.00 0.00 0.00 0.00 0.00 0.00 0.00 0.00
0.00 0.00 0.00 0.00 0.00 0.00 0.00 0.00 0.00 0.00 0.00 0.00 0.00 0.00 0.00 0.00 0.00 0.00 0.00 0.00 0.00 0.00 0.00 0.00 0.00 0.00 0.00 0.00 0.00 0.00 0.00 0.00 0.00 0.00 0.00 0.00 0.00 0.00 0.00 0.00 0.00 0.00 0.00 0.00 0.00 0.00 0.00 0.00 0.00 0.00 0.00 0.00 0.00 0.00
0.00 0.00 0.00 0.00 0.00 0.00 0.00 0.00 0.00 0.00 0.00 0.00 0.00 0.00 0.00 0.00 0.00 0.00 0.00 0.00 0.00 0.00 0.00 0.00 0.00 0.00 0.00 0.00 0.00 0.00 0.00 0.00 0.00 0.00 0.00 0.00 0.00 0.00 0.00 0.00 0.00 0.00 0.00 0.00 0.00 0.00 0.00 0.00 0.00 0.00 0.00 0.00 0.00 0.00
0.00 0.00 0.00 0.00 0.00 0.00 0.00 0.00 0.00 0.00 0.00 0.00 0.00 0.00 0.00 0.00 0.00 0.00 0.00 0.00 0.00 0.00 0.00 0.00 0.00 0.00 0.00 0.00 0.00 0.00 0.00 0.00 0.00 0.00 0.00 0.00 0.00 0.00 0.00 0.00 0.00 0.00 0.00 0.00 0.00 0.00 0.00 0.00 0.00 0.00 0.00 0.00 0.00 0.00
0.00 0.00 0.00 0.00 0.00 0.00 0.00 0.00 0.00 0.00 0.00 0.00 0.00 0.00 0.00 0.00 0.00 0.00 0.00 0.00 0.00 0.00 0.00 0.00 0.00 0.00 0.00 0.00 0.01 0.01 0.01 0.01 0.01 0.00 0.00 0.00 0.00 0.00 0.00 0.00 0.00 0.00 0.00 0.00 0.00 0.00 0.00 0.00 0.00 0.00 0.00 0.00 0.00 0.00
0.00 0.00 0.00 0.00 0.00 0.00 0.00 0.00 0.00 0.00 0.00 0.00 0.00 0.00 0.00 0.00 0.00 0.00 0.00 0.00 0.00 0.00 0.00 0.00 0.00 0.00 0.00 0.00 0.01 0.00 0.00 0.01 0.00 0.00 0.00 0.00 0.00 0.00 0.00 0.00 0.00 0.00 0.00 0.00 0.00 0.00 0.00 0.00 0.00 0.00 0.00 0.00 0.01 0.00
0.00 0.00 0.00 0.00 0.00 0.00 0.00 0.00 0.00 0.00 0.00 0.00 0.00 0.00 0.00 0.00 0.00 0.00 0.00 0.00 0.00 0.00 0.00 0.00 0.00 0.00 0.00 0.00 0.01 0.01 0.01 0.01 0.01 0.01 0.00 0.00 0.00 0.00 0.00 0.00 0.00 0.00 0.00 0.00 0.00 0.00 0.00 0.00 0.00 0.00 0.00 0.01 0.00 0.00
0.00 0.00 0.00 0.00 0.00 0.00 0.00 0.00 0.00 0.00 0.00 0.00 0.00 0.00 0.00 0.00 0.00 0.00 0.00 0.00 0.00 0.00 0.00 0.00 0.00 0.00 0.00 0.00 0.00 0.00 0.00 0.01 0.01 0.02 0.01 0.01 0.00 0.00 0.00 0.00 0.00 0.00 0.00 0.00 0.00 0.00 0.00 0.00 0.00 0.00 0.00 0.00 0.00 0.00
0.00 0.00 0.00 0.00 0.00 0.00 0.00 0.00 0.00 0.00 0.00 0.00 0.00 0.00 0.00 0.00 0.00 0.00 0.00 0.00 0.00 0.00 0.00 0.00 0.00 0.00 0.00 0.00 0.00 0.00 0.00 0.00 0.01 0.01 0.01 0.02 0.01 0.00 0.00 0.00 0.00 0.00 0.00 0.00 0.00 0.00 0.00 0.00 0.00 0.00 0.00 0.00 0.00 0.00
0.00 0.00 0.00 0.00 0.00 0.00 0.00 0.00 0.00 0.00 0.00 0.00 0.00 0.00 0.00 0.00 0.00 0.00 0.00 0.00 0.00 0.00 0.00 0.00 0.00 0.00 0.00 0.00 0.00 0.00 0.00 0.00 0.00 0.00 0.01 0.01 0.02 0.01 0.01 0.00 0.00 0.00 0.00 0.00 0.00 0.00 0.00 0.00 0.00 0.00 0.00 0.00 0.00 0.00
0.00 0.00 0.00 0.00 0.00 0.00 0.00 0.00 0.00 0.00 0.00 0.00 0.00 0.00 0.00 0.00 0.00 0.00 0.00 0.00 0.00 0.00 0.00 0.00 0.00 0.00 0.00 0.00 0.00 0.00 0.00 0.00 0.00 0.00 0.00 0.00 0.01 0.01 0.02 0.01 0.01 0.00 0.00 0.00 0.00 0.00 0.00 0.00 0.00 0.00 0.00 0.00 0.00 0.00
0.00 0.00 0.00 0.00 0.00 0.00 0.00 0.00 0.00 0.00 0.00 0.00 0.00 0.00 0.00 0.00 0.00 0.00 0.00 0.00 0.00 0.00 0.00 0.00 0.00 0.00 0.00 0.00 0.00 0.00 0.00 0.00 0.00 0.00 0.00 0.00 0.00 0.00 0.00 0.01 0.01 0.01 0.00 0.01 0.00 0.01 0.00 0.00 0.00 0.00 0.00 0.00 0.00 0.00
0.00 0.00 0.00 0.00 0.00 0.00 0.00 0.00 0.00 0.00 0.00 0.00 0.00 0.00 0.00 0.00 0.00 0.00 0.00 0.00 0.00 0.00 0.00 0.00 0.00 0.00 0.00 0.00 0.00 0.00 0.00 0.00 0.00 0.00 0.00 0.00 0.00 0.00 0.00 0.00 0.00 0.00 0.00 0.00 0.01 0.01 0.01 0.00 0.00 0.00 0.00 0.00 0.00 0.00
0.00 0.00 0.00 0.00 0.00 0.00 0.00 0.00 0.00 0.00 0.00 0.00 0.00 0.00 0.00 0.00 0.00 0.00 0.00 0.00 0.00 0.00 0.00 0.00 0.00 0.00 0.00 0.00 0.00 0.00 0.00 0.00 0.00 0.00 0.00 0.00 0.00 0.00 0.00 0.00 0.00 0.00 0.00 0.00 0.00 0.01 0.01 0.01 0.01 0.00 0.00 0.00 0.00 0.00
0.00 0.00 0.00 0.00 0.00 0.00 0.00 0.00 0.00 0.00 0.00 0.00 0.00 0.00 0.00 0.00 0.00 0.00 0.00 0.00 0.00 0.00 0.00 0.00 0.00 0.00 0.00 0.00 0.00 0.00 0.00 0.00 0.00 0.00 0.00 0.00 0.00 0.00 0.00 0.00 0.00 0.00 0.01 0.01 0.02 0.02 0.01 0.01 0.00 0.00 0.00 0.00 0.00 0.00
0.00 0.00 0.00 0.00 0.00 0.00 0.00 0.00 0.00 0.00 0.00 0.00 0.00 0.00 0.00 0.00 0.00 0.00 0.00 0.00 0.00 0.00 0.00 0.00 0.00 0.00 0.00 0.00 0.00 0.00 0.00 0.00 0.00 0.00 0.00 0.00 0.00 0.00 0.00 0.00 0.00 0.00 0.00 0.01 0.01 0.03 0.03 0.03 0.03 0.03 0.02 0.01 0.01 0.00
0.00 0.00 0.00 0.00 0.00 0.00 0.00 0.00 0.00 0.00 0.00 0.00 0.00 0.00 0.00 0.00 0.00 0.00 0.00 0.00 0.00 0.00 0.00 0.00 0.00 0.00 0.00 0.00 0.00 0.00 0.00 0.00 0.00 0.00 0.00 0.00 0.00 0.00 0.00 0.00 0.00 0.00 0.00 0.00 0.00 0.00 0.01 0.01 0.01 0.01 0.02 0.02 0.01 0.01
0.00 0.00 0.00 0.00 0.00 0.00 0.00 0.00 0.00 0.00 0.00 0.00 0.00 0.00 0.00 0.00 0.00 0.00 0.00 0.00 0.00 0.00 0.00 0.00 0.00 0.00 0.00 0.00 0.00 0.00 0.00 0.00 0.00 0.00 0.00 0.00 0.00 0.00 0.00 0.00 0.00 0.00 0.00 0.00 0.00 0.00 0.00 0.01 0.01 0.01 0.01 0.01 0.02 0.02
0.00 0.00 0.00 0.00 0.00 0.00 0.00 0.00 0.00 0.00 0.00 0.00 0.00 0.00 0.00 0.00 0.00 0.00 0.00 0.00 0.00 0.00 0.00 0.00 0.00 0.00 0.00 0.00 0.00 0.00 0.00 0.00 0.00 0.00 0.00 0.00 0.00 0.00 0.00 0.00 0.00 0.00 0.00 0.00 0.00 0.00 0.00 0.00 0.00 0.00 0.01 0.01 0.01 0.02
0.00 0.00 0.00 0.00 0.00 0.00 0.00 0.00 0.00 0.00 0.00 0.00 0.00 0.00 0.00 0.00 0.00 0.00 0.00 0.00 0.00 0.00 0.00 0.00 0.00 0.00 0.00 0.00 0.00 0.00 0.00 0.00 0.00 0.00 0.00 0.00 0.00 0.00 0.00 0.00 0.00 0.00 0.00 0.01 0.00 0.00 0.00 0.00 0.00 0.00 0.00 0.00 0.01 0.01
MSLP
1022.42 1022.41 1021.97 1021.77 1021.55 1021.21 1020.74 1020.13 1019.73 1019.19 1018.58 1018.00 1017.57 1016.93 1016.33 1016.20 1016.21 1016.51 1019.34 1018.73 1018.91 1023.72 1026.34 1026.37 1026.23 1026.01 1025.10 1024.37 1023.34 1021.98 1020.75 1020.27 1019.58 1019.11 1019.44 1020.53 1021.61 1023.79 1026.37 1028.44 1028.77 1029.02 1028.89 1028.74 1028.60 1029.27 1031.39 1032.00 1031.01 1031.62 1032.77 1032.11 1031.86 1031.53
1023.35 1022.98 1022.57 1022.36 1022.22 1022.04 1021.73 1021.22 1020.46 1020.01 1019.46 1018.92 1018.42 1017.94 1017.19 1016.92 1016.81 1017.03 1019.49 1020.27 1019.90 1022.08 1026.73 1027.35 1027.66 1027.63 1027.18 1026.42 1025.63 1023.69 1023.29 1022.91 1022.59 1022.03 1022.25 1023.28 1025.06 1026.80 1028.13 1030.05 1031.04 1032.10 1033.11 1032.95 1032.85 1032.33 1032.74 1032.96 1032.87 1033.49 1033.44 1033.04 1032.43 1032.12
1023.77 1023.37 1023.12 1023.03 1022.93 1022.71 1022.39 1022.02 1021.58 1020.88 1020.43 1020.01 1019.51 1019.10 1018.60 1018.38 1018.47 1018.76 1019.92 1020.23 1020.81 1023.33 1026.48 1027.23 1027.62 1027.50 1026.72 1026.33 1025.94 1025.51 1024.46 1024.54 1024.16 1024.25 1024.47 1026.18 1028.05 1029.39 1030.74 1033.13 1033.48 1033.94 1034.00 1034.37 1033.68 1033.61 1033.51 1033.43 1033.68 1033.78 1033.80 1033.54 1033.06 1032.63
1024.32 1024.11 1024.01 1023.70 1023.43 1023.19 1022.77 1022.30 1021.98 1021.90 1021.70 1021.12 1020.66 1020.21 1020.00 1019.93 1019.89 1019.98 1020.25 1020.46 1020.54 1022.27 1025.67 1028.10 1027.79 1027.59 1027.18 1026.35 1025.79 1025.57 1025.52 1025.36 1025.47 1025.70 1027.07 1028.75 1030.04 1031.43 1033.27 1034.71 1035.29 1035.91 1035.61 1036.05 1035.13 1034.66 1034.78 1033.65 1034.35 1034.48 1034.02 1033.81 1033.36 1032.83
1024.92 1024.75 1024.53 1024.28 1023.84 1023.51 1022.95 1022.56 1022.45 1022.37 1022.09 1021.69 1021.06 1020.74 1020.65 1020.83 1020.90 1020.73 1021.02 1021.65 1021.18 1021.54 1024.96 1027.34 1027.76 1028.13 1027.62 1027.23 1026.83 1026.59 1026.48 1026.74 1027.29 1028.51 1030.47 1032.25 1032.99 1033.31 1034.24 1035.36 1036.96 1037.43 1037.83 1037.95 1037.29 1036.88 1036.80 1036.02 1035.50 1034.97 1034.58 1034.19 1033.71 1033.22
1025.40 1025.20 1024.90 1024.45 1024.14 1023.84 1023.36 1022.82 1022.66 1022.71 1022.65 1022.32 1022.11 1021.58 1021.31 1021.08 1020.71 1020.98 1021.69 1022.45 1022.75 1022.99 1024.39 1027.25 1029.04 1029.31 1028.67 1028.17 1027.94 1027.94 1028.09 1028.44 1029.44 1031.29 1033.13 1034.46 1034.89 1035.18 1036.32 1037.75 1038.61 1038.50 1038.46 1038.59 1038.29 1037.45 1037.02 1036.42 1035.76 1035.26 1035.02 1034.23 1033.74 1033.17
1025.83 1025.51 1025.18 1024.91 1024.61 1024.14 1023.59 1023.19 1023.03 1022.97 1023.05 1023.01 1022.96 1022.46 1022.37 1022.10 1021.76 1023.36 1025.23 1025.03 1023.64 1023.61 1024.95 1028.07 1029.65 1030.23 1030.06 1029.61 1029.98 1030.13 1030.10 1030.96 1031.60 1033.11 1034.59 1035.30 1035.35 1035.43 1037.70 1039.31 1039.12 1038.90 1038.35 1038.27 1038.04 1037.69 1036.79 1036.14 1035.80 1035.12 1034.60 1033.96 1033.42 1032.92
1026.15 1025.81 1025.57 1025.18 1024.81 1024.32 1023.78 1023.39 1023.34 1023.29 1023.28 1023.26 1023.16 1023.13 1023.02 1022.92 1023.36 1024.30 1025.32 1024.62 1023.96 1024.60 1026.48 1029.53 1031.29 1031.69 1032.48 1032.21 1032.14 1031.88 1032.09 1032.31 1033.62 1034.76 1035.69 1036.16 1035.88 1036.61 1038.58 1039.46 1039.07 1038.71 1038.20 1037.95 1037.79 1037.18 1036.72 1035.78 1035.26 1034.76 1034.07 1033.54 1033.02 1032.54
1026.35 1025.98 1025.63 1025.28 1024.86 1024.44 1023.93 1023.48 1023.51 1023.46 1023.32 1023.24 1023.30 1023.23 1023.67 1024.22 1024.97 1025.89 1025.61 1025.66 1025.57 1026.75 1030.61 1033.69 1034.94 1035.08 1034.73 1034.39 1034.13 1033.48 1033.19 1034.29 1034.74 1035.66 1036.58 1036.93 1037.14 1038.17 1039.04 1039.16 1038.87 1038.75 1038.21 1037.62 1036.79 1036.36 1035.73 1035.26 1034.66 1034.14 1033.55 1033.04 1032.59 1031.99
1026.32 1026.11 1025.76 1025.34 1024.99 1024.58 1023.97 1023.60 1023.65 1023.60 1023.53 1023.52 1023.35 1023.67 1025.25 1026.34 1025.91 1025.71 1025.82 1026.42 1028.24 1031.18 1033.71 1036.47 1037.00 1037.13 1037.42 1036.32 1035.86 1035.33 1034.77 1035.58 1036.15 1037.06 1036.93 1036.90 1037.99 1038.02 1038.36 1038.32 1038.17 1037.62 1037.24 1036.67 1036.19 1035.19 1034.76 1034.26 1033.88 1033.41 1032.98 1032.43 1032.02 1031.36
1026.57 1026.27 1025.83 1025.51 1025.19 1024.84 1024.23 1023.79 1023.77 1023.72 1023.66 1024.00 1025.13 1026.43 1026.61 1025.85 1026.01 1027.06 1029.55 1031.32 1033.14 1035.40 1037.21 1037.85 1038.29 1038.41 1038.27 1038.45 1038.25 1037.73 1037.30 1036.56 1036.94 1037.49 1037.31 1037.35 1038.23 1038.03 1037.74 1037.71 1037.11 1036.57 1036.09 1035.74 1035.37 1034.77 1034.32 1033.88 1033.27 1032.74 1032.21 1031.85 1031.33 1030.90
1026.87 1026.49 1026.02 1025.76 1025.51 1025.27 1024.96 1024.15 1023.83 1024.50 1025.30 1025.74 1026.30 1027.00 1026.91 1027.99 1029.11 1030.96 1034.01 1035.15 1036.97 1038.67 1038.91 1039.01 1039.14 1039.19 1038.83 1038.69 1038.77 1037.92 1037.84 1037.18 1037.88 1037.60 1037.72 1037.89 1037.65 1037.44 1037.15 1036.84 1036.37 1035.78 1035.40 1035.01 1034.66 1034.22 1033.75 1033.29 1032.83 1032.38 1031.87 1031.21 1030.68 1030.17
1027.15 1026.83 1026.45 1026.19 1025.92 1025.75 1025.51 1025.20 1025.21 1025.29 1025.40 1025.94 1027.45 1029.50 1031.07 1032.91 1034.26 1037.11 1038.45 1038.60 1039.22 1039.94 1040.03 1040.00 1039.80 1039.48 1038.95 1038.68 1038.75 1038.61 1038.42 1038.34 1037.74 1037.52 1037.59 1037.27 1036.95 1036.63 1036.30 1036.07 1035.59 1035.25 1034.95 1034.57 1034.16 1033.82 1033.37 1032.78 1032.31 1031.97 1031.35 1030.85 1030.17 1029.70
1027.73 1027.31 1026.92 1026.55 1026.10 1025.91 1026.12 1025.99 1025.71 1025.50 1026.08 1029.40 1031.89 1034.55 1035.93 1038.24 1039.58 1040.33 1040.89 1040.85 1040.63 1040.51 1040.54 1040.44 1040.08 1039.75 1039.09 1038.74 1038.60 1038.61 1038.46 1037.94 1037.69 1037.50 1037.15 1036.55 1035.97 1035.92 1035.72 1035.42 1035.28 1034.92 1034.55 1034.20 1033.85 1033.35 1032.86 1032.37 1031.79 1031.36 1030.93 1030.33 1029.73 1029.17
1028.47 1028.02 1027.55 1027.10 1026.77 1026.60 1026.41 1026.15 1026.41 1026.78 1030.39 1033.63 1035.25 1038.11 1039.63 1040.49 1040.64 1040.85 1041.09 1041.17 1040.75 1040.64 1040.75 1040.55 1040.02 1039.75 1038.95 1038.79 1038.20 1038.22 1038.07 1037.84 1037.23 1036.90 1035.75 1035.07 1035.05 1035.20 1035.23 1035.08 1034.94 1034.65 1034.26 1033.89 1033.45 1032.99 1032.46 1031.98 1031.48 1030.94 1030.43 1029.93 1029.39 1028.74
1028.92 1028.88 1028.75 1028.22 1027.30 1026.37 1026.44 1026.82 1027.21 1029.80 1034.53 1036.78 1038.50 1040.05 1040.40 1040.69 1040.72 1040.82 1040.97 1040.83 1040.76 1040.80 1040.83 1040.82 1040.10 1039.54 1039.67 1039.16 1038.38 1038.44 1037.98 1037.03 1035.73 1034.85 1034.33 1034.20 1034.33 1034.58 1034.73 1034.42 1034.27 1034.07 1033.77 1033.43 1033.06 1032.63 1032.17 1031.77 1031.29 1030.60 1029.90 1029.42 1028.91 1028.37
1029.08 1029.83 1029.29 1028.43 1028.07 1026.88 1026.63 1028.30 1031.31 1035.35 1037.87 1039.33 1040.98 1040.94 1041.13 1041.23 1041.17 1041.19 1041.02 1040.82 1040.78 1040.71 1040.51 1040.12 1040.24 1039.88 1039.20 1038.43 1037.78 1037.16 1036.42 1035.33 1034.50 1033.84 1033.59 1033.59 1033.72 1033.80 1033.67 1033.65 1033.59 1033.47 1033.23 1032.94 1032.58 1032.15 1031.79 1031.27 1030.76 1030.15 1029.43 1028.86 1028.40 1027.86
1030.28 1030.31 1029.31 1028.38 1028.03 1028.26 1030.69 1032.25 1035.35 1038.31 1040.39 1041.03 1041.23 1041.41 1041.29 1041.20 1041.08 1040.82 1040.84 1040.69 1040.71 1040.52 1040.20 1040.31 1039.73 1039.31 1038.50 1037.68 1036.30 1035.24 1034.60 1033.98 1033.65 1033.31 1033.07 1032.84 1032.86 1032.99 1033.04 1033.00 1032.85 1032.72 1032.55 1032.34 1032.12 1031.74 1031.36 1030.90 1030.33 1029.63 1029.10 1028.51 1027.93 1027.27
1030.77 1030.24 1029.76 1029.01 1028.53 1030.14 1033.90 1036.83 1037.73 1040.06 1041.36 1041.43 1041.48 1041.38 1041.30 1041.02 1040.77 1040.80 1040.76 1040.62 1040.66 1040.53 1040.26 1039.73 1039.24 1038.34 1037.28 1036.02 1035.21 1034.39 1033.88 1033.51 1033.01 1032.52 1032.34 1032.22 1032.20 1032.29 1032.29 1032.21 1032.08 1031.98 1031.87 1031.80 1031.51 1031.18 1030.64 1030.17 1029.69 1029.23 1028.80 1028.24 1027.66 1027.00
1030.60 1030.44 1030.05 1029.84 1029.06 1032.38 1036.72 1039.19 1039.33 1040.44 1041.73 1041.73 1041.66 1041.48 1041.43 1041.05 1040.69 1040.63 1040.50 1040.52 1040.47 1040.14 1039.83 1039.02 1037.89 1036.46 1035.47 1034.38 1033.93 1033.65 1033.26 1033.12 1032.92 1032.40 1031.78 1031.42 1031.49 1031.55 1031.48 1031.43 1031.40 1031.23 1031.11 1030.83 1030.62 1030.19 1030.08 1029.49 1029.19 1028.81 1028.52 1027.69 1027.15 1026.91
1030.76 1031.06 1030.71 1030.65 1033.26 1035.40 1039.21 1041.25 1041.75 1042.20 1042.13 1041.95 1042.02 1041.96 1041.45 1040.96 1040.95 1041.00 1040.98 1040.78 1040.27 1039.33 1038.76 1036.97 1035.90 1034.51 1033.79 1033.42 1032.97 1032.93 1032.70 1032.69 1032.54 1032.30 1031.64 1030.97 1030.82 1030.82 1030.68 1030.61 1030.65 1030.68 1030.72 1030.37 1030.09 1029.67 1029.47 1029.26 1028.78 1028.39 1027.99 1027.49 1027.15 1026.70
1032.63 1031.83 1032.43 1032.96 1035.80 1038.15 1040.99 1042.74 1042.80 1042.64 1042.44 1042.09 1041.91 1041.94 1041.94 1042.06 1041.78 1041.85 1041.67 1040.79 1039.26 1037.37 1036.54 1035.46 1034.60 1033.90 1033.44 1032.77 1032.34 1032.28 1032.02 1031.99 1031.74 1031.56 1031.03 1030.74 1030.43 1030.19 1030.05 1030.04 1030.11 1030.00 1029.87 1029.63 1029.41 1029.13 1028.83 1028.60 1028.26 1027.73 1027.46 1027.09 1026.71 1026.50
1032.87 1032.88 1034.47 1035.89 1037.97 1040.18 1043.16 1043.18 1042.88 1042.77 1042.73 1042.39 1041.91 1042.23 1042.40 1042.46 1042.23 1041.82 1041.39 1039.32 1037.55 1035.73 1035.28 1034.88 1034.19 1033.68 1033.27 1032.26 1031.84 1031.50 1031.41 1031.34 1031.14 1030.81 1030.44 1030.23 1029.94 1029.71 1029.54 1029.39 1029.34 1029.29 1028.98 1028.61 1028.51 1028.36 1028.18 1027.84 1027.58 1027.32 1026.98 1026.74 1026.42 1026.12
1034.36 1036.60 1038.37 1039.95 1040.72 1042.75 1043.10 1043.28 1043.10 1043.17 1043.12 1043.08 1043.20 1043.26 1043.03 1043.03 1042.21 1041.72 1040.77 1038.49 1036.21 1035.32 1035.00 1034.55 1034.02 1033.33 1032.29 1031.72 1031.52 1030.95 1030.76 1030.63 1030.52 1030.15 1029.93 1029.72 1029.31 1028.82 1028.77 1028.53 1028.39 1028.26 1028.08 1027.80 1027.72 1027.56 1027.37 1027.14 1026.84 1026.72 1026.55 1026.30 1026.01 1025.72
1036.60 1041.47 1042.06 1042.78 1043.08 1043.37 1044.16 1044.18 1044.32 1043.95 1044.35 1044.25 1044.19 1044.01 1043.59 1043.51 1042.88 1041.66 1039.79 1037.44 1036.01 1035.63 1034.98 1034.44 1033.90 1033.56 1033.00 1031.90 1031.20 1030.61 1030.28 1030.32 1030.19 1029.86 1028.98 1029.04 1028.84 1028.56 1028.11 1027.82 1027.53 1027.26 1027.14 1027.07 1026.88 1026.74 1026.55 1026.40 1026.27 1026.17 1025.96 1025.73 1025.44 1024.97
1040.97 1044.22 1044.44 1045.10 1045.10 1045.10 1045.58 1045.57 1045.64 1045.52 1045.13 1044.95 1044.43 1044.02 1043.91 1043.36 1042.22 1040.31 1038.10 1036.98 1036.37 1036.03 1035.40 1035.01 1034.43 1033.39 1032.50 1032.11 1031.44 1030.58 1030.01 1029.83 1029.90 1029.81 1028.56 1028.47 1028.41 1028.31 1027.89 1027.59 1027.00 1026.29 1026.08 1026.12 1026.20 1026.10 1025.87 1025.67 1025.57 1025.41 1025.20 1024.89 1024.53 1024.39
1043.92 1045.41 1045.85 1046.12 1046.08 1046.15 1045.98 1045.90 1045.81 1045.78 1045.52 1044.99 1044.48 1043.97 1043.78 1042.52 1040.82 1038.67 1037.57 1037.08 1036.75 1035.79 1035.20 1034.74 1034.31 1033.77 1032.91 1031.68 1031.16 1030.65 1030.07 1029.75 1029.63 1029.05 1028.29 1027.97 1027.58 1027.40 1027.34 1027.05 1026.58 1025.94 1025.64 1025.71 1025.67 1025.48 1025.14 1024.84 1024.71 1024.53 1024.28 1024.00 1023.86 1023.80
1045.73 1046.50 1046.82 1046.69 1046.57 1046.55 1046.37 1046.12 1045.97 1045.75 1044.75 1044.62 1044.60 1043.92 1042.80 1041.11 1039.70 1038.35 1037.60 1037.03 1036.54 1035.67 1034.76 1033.90 1033.36 1033.08 1032.49 1031.79 1031.17 1030.56 1029.75 1029.30 1028.97 1028.35 1027.78 1027.17 1026.56 1026.42 1026.24 1026.16 1025.82 1025.44 1025.27 1024.92 1024.62 1024.25 1024.12 1024.02 1023.85 1023.58 1023.32 1023.02 1022.72 1022.67
1046.98 1047.39 1047.50 1047.55 1047.10 1046.82 1046.33 1045.89 1045.67 1045.40 1045.32 1045.21 1045.05 1043.82 1042.34 1040.55 1038.96 1038.34 1037.59 1037.31 1036.77 1036.09 1034.79 1033.40 1032.07 1032.15 1031.67 1031.29 1030.90 1030.43 1029.91 1029.46 1029.21 1028.64 1028.01 1027.13 1026.28 1026.09 1025.78 1025.66 1025.31 1024.98 1024.62 1024.28 1023.86 1023.41 1023.04 1022.82 1022.63 1022.40 1022.06 1022.07 1021.84 1021.79
1048.03 1048.19 1047.83 1047.62 1047.16 1046.25 1045.89 1046.01 1046.35 1046.31 1045.98 1045.89 1045.55 1044.40 1043.04 1041.09 1038.98 1038.38 1038.12 1037.59 1037.01 1036.12 1035.34 1034.53 1033.59 1032.88 1032.27 1031.51 1030.60 1030.06 1029.94 1029.61 1029.51 1029.56 1028.81 1027.78 1026.99 1026.17 1025.64 1025.15 1024.75 1024.31 1023.95 1023.64 1023.20 1022.72 1022.37 1022.11 1021.87 1021.59 1021.53 1021.25 1021.05 1020.79
1048.35 1048.25 1047.96 1047.32 1046.52 1045.93 1046.39 1046.75 1046.86 1046.77 1046.45 1046.15 1045.88 1045.57 1044.30 1042.53 1040.27 1038.44 1038.19 1037.71 1037.14 1036.25 1035.23 1034.07 1033.40 1033.19 1032.71 1032.13 1031.64 1030.92 1029.87 1029.36 1029.05 1028.80 1028.24 1027.43 1026.48 1025.50 1024.73 1024.17 1023.79 1023.42 1023.14 1022.90 1022.57 1022.11 1021.81 1021.57 1021.37 1021.04 1020.68 1020.31 1019.93 1019.51
1048.28 1048.36 1048.39 1047.35 1046.10 1046.19 1046.53 1046.51 1046.35 1046.24 1045.95 1045.75 1045.34 1045.16 1044.15 1043.60 1041.84 1038.74 1037.82 1037.63 1037.06 1036.17 1035.65 1034.98 1034.34 1033.53 1032.87 1032.28 1031.81 1031.38 1030.68 1029.86 1028.98 1028.24 1027.19 1026.26 1025.25 1024.43 1023.71 1022.99 1022.80 1022.64 1022.38 1022.12 1021.81 1021.47 1021.31 1021.12 1020.82 1020.47 1020.02 1019.48 1019.04 1018.61
1048.54 1048.69 1048.45 1048.00 1046.92 1046.27 1046.39 1046.25 1045.76 1045.20 1044.95 1044.68 1044.42 1044.13 1043.70 1043.34 1041.97 1039.11 1037.70 1038.08 1037.77 1036.85 1036.02 1035.22 1034.47 1033.59 1032.97 1032.31 1031.70 1031.15 1030.30 1029.66 1028.94 1027.89 1026.96 1025.80 1024.83 1023.79 1023.26 1022.99 1022.60 1022.23 1021.91 1021.66 1021.39 1021.19 1020.96 1020.66 1020.33 1019.95 1019.50 1018.97 1018.40 1017.86
Thickness
5431 5426 5425 5420 5415 5410 5406 5404 5400 5398 5397 5397 5394 5394 5393 5389 5384 5377 5351 5352 5345 5296 5272 5272 5272 5269 5275 5277 5291 5296 5310 5308 5305 5322 5317 5296 5285 5258 5223 5202 5203 5195 5198 5199 5204 5196 5172 5162 5176 5168 5150 5151 5151 5151
5414 5411 5407 5402 5395 5389 5385 5382 5380 5377 5374 5371 5368 5365 5366 5362 5358 5352 5330 5320 5319 5298 5257 5253 5248 5248 5248 5249 5251 5264 5274 5267 5264 5279 5268 5256 5231 5216 5205 5189 5180 5161 5151 5155 5154 5158 5148 5138 5139 5127 5123 5122 5125 5122
5399 5395 5390 5383 5376 5371 5365 5360 5356 5353 5346 5342 5339 5335 5332 5328 5323 5318 5305 5299 5293 5272 5245 5239 5234 5235 5238 5238 5239 5241 5249 5240 5240 5236 5240 5219 5193 5190 5176 5149 5150 5146 5140 5135 5137 5136 5122 5119 5113 5107 5100 5097 5098 5096
5383 5377 5370 5364 5358 5351 5344 5340 5333 5325 5319 5315 5312 5308 5304 5298 5294 5290 5286 5281 5280 5267 5237 5217 5221 5221 5222 5227 5229 5228 5228 5227 5225 5221 5205 5191 5182 5173 5146 5133 5125 5117 5119 5106 5112 5107 5102 5103 5091 5082 5083 5075 5073 5072
5365 5359 5352 5344 5339 5331 5327 5321 5314 5307 5302 5298 5296 5291 5285 5278 5273 5272 5268 5261 5263 5264 5231 5216 5214 5209 5212 5212 5213 5213 5211 5208 5198 5181 5166 5150 5146 5151 5136 5123 5101 5090 5084 5075 5072 5077 5064 5068 5064 5062 5062 5055 5051 5048
5349 5341 5334 5329 5322 5315 5311 5308 5303 5295 5289 5285 5281 5279 5277 5274 5272 5269 5261 5254 5250 5247 5233 5206 5197 5193 5198 5200 5200 5197 5193 5189 5172 5151 5126 5113 5106 5113 5098 5087 5074 5077 5063 5051 5060 5060 5043 5047 5043 5033 5036 5038 5033 5030
5331 5325 5319 5313 5308 5306 5304 5301 5296 5292 5286 5281 5277 5275 5273 5273 5273 5254 5237 5238 5246 5246 5233 5206 5198 5190 5187 5190 5182 5179 5178 5161 5155 5135 5122 5120 5118 5121 5079 5058 5070 5067 5054 5053 5045 5043 5039 5028 5033 5027 5023 5022 5022 5020
5318 5314 5308 5305 5304 5303 5302 5300 5296 5293 5290 5288 5285 5280 5276 5273 5269 5257 5249 5249 5250 5243 5234 5199 5194 5189 5174 5176 5167 5169 5164 5157 5145 5126 5120 5108 5119 5107 5063 5063 5061 5063 5059 5052 5042 5035 5032 5035 5025 5019 5019 5016 5014 5012
5310 5308 5306 5305 5305 5304 5304 5305 5304 5302 5299 5298 5295 5289 5281 5274 5266 5254 5253 5250 5249 5242 5197 5170 5154 5155 5162 5167 5160 5164 5163 5147 5143 5126 5110 5116 5111 5072 5077 5072 5064 5058 5058 5056 5054 5044 5036 5028 5023 5020 5017 5012 5007 5007
5311 5308 5308 5310 5310 5311 5313 5315 5312 5308 5303 5300 5299 5295 5278 5267 5266 5266 5262 5255 5239 5211 5186 5154 5157 5150 5147 5156 5157 5155 5153 5133 5112 5112 5118 5117 5086 5085 5085 5077 5066 5065 5057 5060 5053 5054 5047 5039 5028 5020 5011 5008 5001 5001
5313 5314 5316 5317 5318 5319 5322 5322 5318 5314 5310 5303 5292 5281 5280 5281 5277 5267 5237 5220 5209 5179 5168 5161 5151 5145 5151 5133 5128 5126 5120 5132 5115 5119 5115 5110 5096 5088 5093 5077 5076 5075 5072 5062 5052 5049 5038 5034 5028 5021 5015 5007 5003 4995
5319 5321 5323 5324 5324 5324 5323 5327 5327 5320 5304 5300 5297 5290 5287 5273 5256 5241 5212 5205 5179 5158 5164 5155 5157 5152 5151 5147 5135 5135 5132 5134 5121 5123 5109 5098 5103 5107 5091 5085 5083 5079 5073 5067 5060 5051 5043 5036 5027 5019 5012 5008 5002 4994
5325 5327 5328 5329 5329 5330 5330 5330 5325 5320 5313 5309 5295 5273 5256 5238 5221 5191 5177 5179 5172 5167 5167 5162 5158 5155 5156 5155 5134 5133 5130 5118 5130 5117 5119 5107 5110 5110 5100 5100 5096 5089 5081 5072 5064 5055 5047 5040 5031 5022 5015 5006 5000 4991
5329 5332 5333 5336 5339 5339 5335 5330 5331 5327 5318 5290 5266 5235 5222 5196 5189 5180 5176 5176 5175 5171 5168 5165 5160 5158 5157 5145 5141 5137 5134 5125 5116 5103 5116 5113 5123 5112 5109 5106 5098 5091 5084 5075 5066 5059 5051 5043 5035 5026 5016 5008 5000 4991
5333 5335 5339 5343 5342 5341 5340 5340 5332 5328 5298 5259 5247 5218 5202 5199 5195 5188 5182 5177 5182 5176 5170 5164 5164 5160 5157 5147 5153 5143 5134 5124 5132 5125 5128 5141 5124 5119 5111 5108 5098 5092 5086 5076 5069 5061 5053 5045 5037 5028 5020 5010 5000 4993
5341 5342 5343 5343 5346 5349 5346 5341 5336 5317 5272 5244 5224 5217 5214 5208 5206 5197 5193 5190 5183 5176 5171 5164 5161 5157 5143 5135 5143 5137 5128 5132 5146 5148 5156 5149 5137 5121 5116 5112 5105 5098 5091 5082 5075 5068 5060 5049 5039 5031 5024 5014 5004 4995
5349 5344 5345 5349 5350 5355 5351 5333 5313 5275 5247 5235 5216 5220 5212 5209 5204 5200 5193 5190 5185 5179 5176 5172 5163 5157 5150 5154 5161 5154 5156 5160 5162 5161 5157 5149 5135 5131 5121 5113 5110 5104 5097 5089 5082 5075 5064 5056 5046 5038 5031 5021 5010 4999
5350 5350 5353 5357 5358 5352 5330 5312 5290 5259 5235 5225 5231 5223 5219 5215 5206 5205 5201 5195 5188 5186 5183 5171 5166 5173 5163 5163 5173 5180 5174 5171 5166 5161 5156 5152 5146 5139 5131 5123 5117 5111 5103 5096 5085 5078 5069 5062 5055 5049 5038 5028 5018 5008
5354 5356 5357 5359 5359 5343 5311 5285 5276 5248 5234 5234 5232 5226 5221 5219 5216 5209 5203 5200 5190 5184 5178 5170 5171 5173 5182 5184 5181 5181 5178 5172 5168 5166 5161 5155 5149 5141 5135 5129 5123 5116 5107 5099 5092 5086 5079 5071 5064 5054 5044 5034 5023 5018
5362 5361 5361 5361 5360 5332 5298 5271 5270 5260 5250 5242 5235 5233 5225 5223 5220 5215 5211 5203 5195 5188 5181 5181 5181 5185 5185 5191 5187 5185 5181 5174 5167 5163 5162 5161 5154 5145 5140 5135 5128 5121 5114 5108 5100 5098 5085 5080 5070 5062 5051 5046 5036 5023
5368 5364 5363 5360 5338 5317 5281 5258 5256 5245 5243 5245 5235 5230 5229 5227 5223 5214 5206 5197 5190 5188 5192 5201 5203 5209 5203 5199 5194 5186 5182 5174 5170 5165 5163 5161 5157 5151 5146 5139 5131 5122 5115 5111 5106 5101 5093 5084 5078 5068 5060 5053 5042 5032
5363 5362 5356 5349 5326 5301 5274 5256 5254 5251 5247 5246 5241 5234 5230 5223 5215 5206 5197 5191 5201 5214 5208 5209 5211 5208 5205 5203 5200 5190 5186 5178 5174 5169 5168 5163 5157 5154 5150 5143 5135 5129 5123 5118 5112 5106 5100 5092 5084 5079 5070 5060 5051 5040
5364 5360 5346 5335 5319 5297 5271 5262 5264 5253 5256 5248 5244 5245 5233 5224 5214 5207 5200 5212 5223 5224 5223 5218 5215 5208 5204 5205 5200 5195 5188 5182 5178 5174 5170 5166 5161 5157 5151 5146 5141 5134 5129 5126 5118 5111 5105 5101 5092 5085 5078 5068 5059 5050
5362 5334 5315 5299 5297 5285 5271 5266 5261 5258 5248 5245 5239 5243 5236 5219 5214 5213 5216 5225 5238 5233 5226 5222 5216 5216 5217 5211 5203 5202 5196 5188 5183 5179 5174 5169 5165 5164 5157 5153 5147 5141 5136 5132 5125 5119 5112 5106 5102 5092 5084 5076 5069 5060
5352 5312 5305 5296 5280 5285 5270 5268 5258 5260 5255 5242 5244 5237 5224 5207 5209 5206 5218 5238 5237 5232 5229 5228 5221 5213 5211 5213 5210 5206 5199 5191 5187 5183 5183 5175 5170 5165 5162 5157 5152 5148 5143 5137 5132 5126 5120 5114 5106 5098 5092 5085 5078 5074
5314 5283 5293 5279 5274 5283 5262 5274 5258 5251 5239 5239 5238 5224 5212 5205 5213 5239 5239 5238 5232 5226 5226 5219 5215 5216 5215 5208 5207 5207 5205 5196 5187 5181 5186 5178 5172 5166 5164 5159 5157 5156 5150 5144 5137 5131 5126 5120 5113 5106 5100 5094 5091 5083
5320 5301 5281 5276 5271 5266 5266 5253 5246 5246 5246 5255 5237 5226 5216 5231 5225 5246 5243 5238 5232 5232 5226 5220 5214 5208 5209 5214 5209 5205 5202 5197 5191 5189 5188 5182 5179 5174 5168 5163 5159 5159 5155 5147 5141 5135 5131 5127 5121 5115 5109 5104 5098 5090
5293 5284 5300 5277 5270 5263 5268 5257 5252 5256 5253 5243 5238 5243 5248 5253 5256 5251 5243 5238 5233 5232 5230 5227 5224 5217 5212 5212 5210 5207 5206 5202 5197 5194 5190 5187 5185 5180 5175 5170 5166 5163 5158 5154 5151 5146 5140 5134 5128 5123 5118 5114 5110 5102
5292 5283 5279 5279 5264 5267 5271 5274 5269 5261 5249 5244 5247 5252 5256 5253 5252 5246 5244 5238 5233 5229 5236 5237 5238 5229 5224 5217 5213 5210 5206 5203 5196 5195 5194 5193 5192 5186 5179 5173 5170 5167 5163 5159 5156 5154 5150 5144 5139 5134 5130 5123 5118 5111
5290 5277 5284 5270 5280 5300 5285 5268 5262 5248 5244 5238 5232 5233 5237 5243 5251 5247 5241 5237 5235 5235 5229 5224 5226 5223 5220 5219 5218 5214 5207 5202 5195 5185 5187 5187 5186 5185 5183 5180 5177 5174 5170 5166 5162 5159 5156 5151 5145 5140 5134 5130 5125 5119
5285 5283 5286 5282 5289 5285 5268 5257 5249 5245 5239 5235 5228 5222 5228 5231 5240 5248 5243 5238 5234 5232 5233 5234 5228 5221 5217 5214 5210 5209 5210 5206 5201 5195 5191 5190 5189 5191 5191 5189 5186 5183 5179 5174 5170 5167 5162 5158 5152 5148 5144 5140 5136 5134
5294 5285 5284 5304 5310 5281 5270 5268 5262 5255 5247 5240 5239 5225 5227 5225 5235 5252 5248 5241 5242 5239 5231 5226 5220 5218 5215 5211 5207 5202 5201 5202 5203 5201 5202 5202 5202 5202 5200 5199 5196 5191 5186 5182 5178 5175 5169 5163 5159 5155 5152 5149 5145 5141
5288 5284 5284 5283 5291 5294 5277 5269 5272 5271 5258 5255 5250 5242 5236 5230 5235 5249 5250 5241 5233 5228 5224 5221 5218 5216 5213 5210 5208 5205 5203 5202 5201 5202 5203 5205 5206 5208 5206 5202 5199 5197 5193 5189 5184 5179 5175 5170 5165 5160 5157 5153 5150 5147